[[{"header":{"parameterUnit":"m.s-1","parameterCategory":1,"la1":30.2991,"la2":30.254,"lo1":-89.0895,"lo2":-89.0444,"dy":0.0017,"dx":0.0017,"nx":28,"ny":28,"refTime":"2023-09-04T21:00:00:Z","depth":0,"parameterNumber":2,"parameterNumberName":"U-component_of_WINDS"},"data":[0,0,0,0,0,0,0,0,0,0,0,0,0,0,0,0,0,0,0,0,0,0,0,0,0,0,0,0,0,0,0,0,0,0,0,0,0,0,0,0,0,0,0,0,0,0,0,0,0,0,0,0,0,0,0,0,0,0,-3.4399,-3.4398,0,-3.4356,-3.4355,-3.4355,-3.4302,-3.4301,-3.4301,-3.43,-3.4254,-3.4253,-3.4253,0,0,0,0,0,0,0,0,0,0,0,0,0,-3.4436,-3.4436,-3.4399,-3.4398,-3.4398,-3.4356,-3.4355,-3.4354,-3.4302,-3.4301,-3.43,-3.4299,-3.4254,-3.4253,-3.4253,0,0,0,0,0,0,0,0,0,0,0,0,0,-3.4409,-3.4435,-3.4399,-3.4367,-3.4363,-3.4356,-3.4355,-3.4354,-3.4303,-3.4301,-3.43,-3.4299,-3.4254,-3.4253,-3.4253,-3.4272,0,0,-3.425,-3.425,0,0,0,0,0,0,0,0,-3.4411,-3.4408,-3.4372,-3.4369,-3.4365,-3.4333,-3.4351,-3.4327,-3.4303,-3.4326,-3.43,-3.4298,-3.4281,-3.4278,-3.4272,-3.427,-3.4268,-3.425,-3.425,-3.425,-3.4249,0,0,0,0,0,0,0,-3.4413,-3.4409,-3.4382,-3.4372,-3.4367,-3.4354,-3.4349,-3.4346,-3.431,-3.4324,-3.432,-3.4315,-3.4279,-3.4273,-3.4271,-3.4268,-3.425,-3.425,-3.4249,-3.4249,-3.428,-3.4282,0,0,0,0,0,0,-3.4419,-3.4411,-3.4383,-3.438,-3.4385,-3.4355,-3.4349,-3.4345,-3.431,-3.4304,-3.4316,-3.4313,-3.4275,-3.4272,-3.4269,-3.429,-3.425,-3.4249,-3.4248,-3.4279,-3.4281,-3.4282,0,0,0,0,0,0,-3.442,-3.4417,-3.4385,-3.4395,-3.439,-3.4355,-3.4351,-3.4344,-3.4339,-3.4305,-3.4298,-3.4317,-3.4274,-3.427,-3.4272,-3.4288,-3.4249,-3.4248,-3.4278,-3.428,-3.4281,-3.4332,0,0,0,0,0,0,-3.4422,-3.4418,-3.4425,-3.4395,-3.4389,-3.4389,-3.4352,-3.4344,-3.4338,-3.4333,-3.4304,-3.4298,-3.4273,-3.4274,-3.4272,-3.4286,-3.4247,-3.4276,-3.4278,-3.4281,-3.4329,-3.4335,-3.4341,0,0,0,0,0,-3.4423,-3.444,-3.4426,-3.4423,-3.4397,-3.439,-3.4386,-3.4357,-3.4339,-3.4346,-3.4325,-3.4299,-3.4287,-3.4274,-3.4271,-3.4286,-3.4275,-3.4278,-3.4281,-3.4326,-3.4334,-3.4341,0,0,0,0,0,0,-3.4472,-3.4436,-3.4419,-3.4427,-3.4412,-3.4381,-3.4388,-3.4367,-3.4356,-3.4351,-3.4316,-3.431,-3.4316,-3.4301,-3.4288,-3.4304,-3.4277,-3.428,-3.4313,-3.432,-3.4326,-3.4329,-3.4247,0,0,0,0,0,-3.4484,-3.4481,-3.445,-3.446,-3.4453,-3.4423,-3.4418,-3.4397,-3.438,-3.4373,-3.4352,-3.4335,-3.4328,-3.4323,-3.4315,-3.4327,-3.432,-3.4336,-3.4342,-3.4347,-3.4349,-3.4355,-3.4362,-3.4291,-3.4291,-3.4291,0,0,-3.4508,-3.4488,-3.4488,-3.4469,-3.4455,-3.4453,-3.4417,-3.4416,-3.4414,-3.4372,-3.4373,-3.4358,-3.4337,-3.4345,-3.4347,-3.4332,-3.4368,-3.4351,-3.4355,-3.4354,-3.4359,-3.4365,-3.4371,-3.4293,-3.4293,-3.4293,0,0,-3.455,-3.4535,-3.4542,-3.4529,-3.4509,-3.4488,-3.449,-3.4463,-3.4451,-3.4452,-3.4421,-3.4418,-3.4406,-3.4393,-3.4384,-3.4425,-3.44,-3.4423,-3.4454,-3.446,-3.4466,-3.4471,-3.4484,-3.449,-3.4426,-3.4426,-3.4426,0,-3.4582,-3.4577,-3.4548,-3.4549,-3.4542,-3.4506,-3.4513,-3.4502,-3.4479,-3.4475,-3.446,-3.4445,-3.4429,-3.4433,-3.4443,-3.4438,-3.4438,-3.4425,-3.4468,-3.4472,-3.4476,-3.4489,-3.4494,-3.4428,-3.4428,-3.4428,-3.4428,0,-3.4618,-3.4615,-3.4623,-3.4604,-3.4598,-3.4602,-3.4573,-3.4571,-3.4551,-3.4533,-3.4535,-3.4514,-3.4501,-3.4501,-3.4482,-3.4503,-3.4495,-3.4474,-3.4446,-3.4486,-3.4497,-3.4502,-3.4432,-3.4431,-3.4431,-3.443,0,0,-3.4686,-3.4652,-3.4656,-3.4647,-3.4623,-3.462,-3.4623,-3.4611,-3.4609,-3.4596,-3.4597,-3.4589,-3.4571,-3.4562,-3.4541,-3.4547,-3.4579,-3.4525,-3.4524,-3.4535,-3.4601,-3.4615,-3.4621,-3.4564,-3.4565,-3.4566,-3.4603,0,-3.4723,-3.4726,-3.4701,-3.4711,-3.4708,-3.4676,-3.4678,-3.4664,-3.4648,-3.4643,-3.4625,-3.4619,-3.4596,-3.459,-3.4594,-3.4574,-3.4592,-3.4572,-3.4564,-3.4564,-3.4568,-3.4627,-3.4642,-3.4677,-3.4607,-3.4608,-3.4608,0,-3.4765,-3.4755,-3.4765,-3.4742,-3.474,-3.4743,-3.473,-3.4727,-3.471,-3.4698,-3.4689,-3.4666,-3.4667,-3.4643,-3.4644,-3.4631,-3.4627,-3.4617,-3.4618,-3.4614,-3.4587,-3.4624,-3.4688,-3.4693,-3.4615,-3.4614,-3.4614,0,-3.4814,-3.4803,-3.4807,-3.4801,-3.4774,-3.4777,-3.4766,-3.4748,-3.4743,-3.4732,-3.4729,-3.4719,-3.4713,-3.4705,-3.468,-3.4665,-3.4684,-3.4658,-3.4673,-3.4674,-3.4677,-3.4677,-3.474,-3.4678,-3.4678,-3.4677,-3.4677,0,-3.4856,-3.4863,-3.4829,-3.4831,-3.4838,-3.481,-3.4818,-3.4804,-3.4789,-3.4788,-3.476,-3.476,-3.4728,-3.4724,-3.4705,-3.4708,-3.4706,-3.4696,-3.469,-3.4697,-3.4699,-3.4693,-3.4689,-3.4679,-3.4678,-3.4678,-3.4678,0,-3.491,-3.4887,-3.489,-3.4865,-3.4859,-3.4865,-3.4844,-3.4845,-3.4829,-3.4828,-3.4826,-3.4799,-3.4794,-3.4769,-3.4757,-3.4744,-3.4754,-3.4744,-3.476,-3.4756,-3.4773,-3.4771,-3.4833,-3.4839,-3.4774,-3.4775,-3.4776,0,-3.4937,-3.4942,-3.4919,-3.4917,-3.4907,-3.4904,-3.4899,-3.4872,-3.4868,-3.4851,-3.4855,-3.4847,-3.4839,-3.4832,-3.4811,-3.4803,-3.4791,-3.4814,-3.479,-3.4797,-3.479,-3.479,-3.479,-3.4818,-3.4819,-3.482,-3.482,0,-3.4989,-3.4978,-3.4972,-3.4963,-3.4958,-3.495,-3.4939,-3.4939,-3.491,-3.4907,-3.4901,-3.4896,-3.4885,-3.4877,-3.4865,-3.4854,-3.4832,-3.4829,-3.4832,-3.4838,-3.4846,-3.4841,-3.4772,-3.4827,-3.4826,-3.4825,-3.4825,-3.4825,-3.503,-3.5033,-3.5017,-3.5012,-3.5001,-3.4993,-3.4993,-3.4977,-3.4972,-3.4961,-3.4946,-3.4943,-3.4928,-3.491,-3.49,-3.4897,-3.4885,-3.4889,-3.489,-3.4891,-3.4894,-3.4849,-3.4895,-3.4895,-3.4894,-3.4894,-3.4894,0,-3.5079,-3.5067,-3.5063,-3.505,-3.5046,-3.5028,-3.5016,-3.5014,-3.5012,-3.5,-3.4993,-3.4987,-3.4981,-3.4961,-3.4952,-3.4953,-3.4943,-3.4952,-3.4951,-3.4948,-3.4906,-3.4904,-3.496,-3.496,-3.496,-3.496,-3.496,-3.496,-3.5104,-3.5108,-3.5095,-3.5094,-3.5083,-3.508,-3.5075,-3.5067,-3.5057,-3.5052,-3.5047,-3.5034,-3.5019,-3.5009,-3.5002,-3.4997,-3.4994,-3.5006,-3.4997,-3.4958,-3.4951,-3.4945,-3.4943,-3.5006,-3.5006,-3.5039,-3.5039,-3.5039]},{"header":{"parameterUnit":"m.s-1","parameterCategory":1,"la1":30.2991,"la2":30.254,"lo1":-89.0895,"lo2":-89.0444,"dy":0.0017,"dx":0.0017,"nx":28,"ny":28,"refTime":"2023-09-04T21:00:00:Z","depth":0,"parameterNumber":3,"parameterNumberName":"V-component_of_WINDS"},"data":[0,0,0,0,0,0,0,0,0,0,0,0,0,0,0,0,0,0,0,0,0,0,0,0,0,0,0,0,0,0,0,0,0,0,0,0,0,0,0,0,0,0,0,0,0,0,0,0,0,0,0,0,0,0,0,0,0,0,3.0548,3.0548,0,3.0564,3.0564,3.0565,3.0594,3.0594,3.0595,3.0595,3.0609,3.0609,3.0608,0,0,0,0,0,0,0,0,0,0,0,0,0,3.0541,3.0541,3.0548,3.0548,3.0549,3.0564,3.0564,3.0565,3.0594,3.0594,3.0595,3.0596,3.0609,3.0609,3.0608,0,0,0,0,0,0,0,0,0,0,0,0,0,3.0549,3.0541,3.0548,3.0565,3.0567,3.0564,3.0564,3.0565,3.0593,3.0594,3.0595,3.0596,3.0609,3.0609,3.0608,3.059,0,0,3.0608,3.0607,0,0,0,0,0,0,0,0,3.0548,3.0549,3.0562,3.0564,3.0566,3.0578,3.0567,3.0573,3.0593,3.0583,3.0595,3.0596,3.0598,3.0598,3.0599,3.059,3.0591,3.0608,3.0607,3.0607,3.0607,0,0,0,0,0,0,0,3.0548,3.0549,3.0555,3.0562,3.0565,3.0571,3.0573,3.0568,3.0585,3.0584,3.0586,3.0588,3.0599,3.06,3.06,3.0591,3.0608,3.0607,3.0607,3.0607,3.0569,3.0568,0,0,0,0,0,0,3.0545,3.0548,3.0554,3.0555,3.0559,3.0571,3.0573,3.0573,3.0585,3.0588,3.0587,3.0589,3.06,3.06,3.06,3.058,3.0607,3.0607,3.0607,3.0569,3.0568,3.0568,0,0,0,0,0,0,3.0545,3.0545,3.0553,3.0552,3.0554,3.057,3.057,3.0573,3.0574,3.0588,3.0591,3.0585,3.06,3.0601,3.0593,3.0581,3.0607,3.0607,3.0571,3.0569,3.0568,3.0539,0,0,0,0,0,0,3.0545,3.0545,3.0539,3.0552,3.0554,3.0546,3.0569,3.0573,3.0574,3.0577,3.0587,3.0589,3.0601,3.0593,3.0592,3.0581,3.0607,3.0572,3.057,3.0568,3.0541,3.0537,3.0533,0,0,0,0,0,3.0544,3.0529,3.0538,3.0539,3.0546,3.0545,3.0546,3.0561,3.0573,3.0566,3.0575,3.0589,3.0582,3.0592,3.0591,3.058,3.0572,3.057,3.0569,3.0543,3.0537,3.0533,0,0,0,0,0,0,3.0513,3.0531,3.0541,3.053,3.0536,3.055,3.0542,3.0555,3.0556,3.0559,3.0576,3.0578,3.0568,3.0573,3.0583,3.0563,3.058,3.0577,3.056,3.0555,3.0551,3.055,3.0606,0,0,0,0,0,3.0505,3.0503,3.0519,3.0508,3.051,3.0526,3.0526,3.0537,3.0543,3.0545,3.0554,3.0559,3.0558,3.0557,3.0557,3.0542,3.0544,3.0534,3.053,3.0527,3.0524,3.0517,3.0513,3.0561,3.0561,3.0561,0,0,3.0488,3.0498,3.0495,3.0502,3.0507,3.0505,3.0527,3.0523,3.0522,3.0544,3.0538,3.0544,3.0551,3.0539,3.0534,3.0543,3.0512,3.0524,3.0521,3.0521,3.0515,3.051,3.0506,3.056,3.056,3.056,0,0,3.0456,3.0463,3.0455,3.046,3.0469,3.048,3.0478,3.049,3.0496,3.0489,3.0507,3.0504,3.0502,3.0507,3.0509,3.0479,3.0492,3.0479,3.0458,3.0451,3.0447,3.0444,3.0433,3.0429,3.0476,3.0476,3.0476,0,3.0433,3.0431,3.0448,3.0444,3.0446,3.0468,3.0459,3.0464,3.0472,3.0472,3.0482,3.0481,3.0487,3.0477,3.047,3.0471,3.0469,3.0477,3.0446,3.0443,3.044,3.0431,3.0427,3.0475,3.0475,3.0475,3.0475,0,3.0403,3.0401,3.0393,3.0402,3.0403,3.0396,3.0412,3.0411,3.0423,3.0432,3.0425,3.0433,3.0436,3.0434,3.0444,3.0426,3.0431,3.0443,3.046,3.0434,3.0425,3.0421,3.0472,3.0473,3.0473,3.0474,0,0,3.0351,3.037,3.0367,3.0371,3.0383,3.0382,3.0376,3.038,3.0379,3.0383,3.0379,3.0378,3.0389,3.0391,3.0402,3.0396,3.0373,3.0409,3.041,3.0402,3.0353,3.0344,3.0339,3.0381,3.0381,3.038,3.0352,0,3.0321,3.0314,3.033,3.0318,3.0316,3.0337,3.0333,3.0339,3.0348,3.0347,3.0357,3.0356,3.0371,3.0373,3.0367,3.0377,3.0363,3.0379,3.0377,3.0377,3.0375,3.0334,3.0324,3.0298,3.0349,3.0348,3.0348,0,3.0285,3.029,3.0278,3.0292,3.0292,3.0287,3.0292,3.0292,3.0299,3.0306,3.0309,3.0323,3.0318,3.0334,3.0328,3.0338,3.0338,3.0343,3.0342,3.0342,3.0361,3.0333,3.0289,3.0285,3.0343,3.0343,3.0344,0,3.0249,3.0252,3.0246,3.0249,3.0264,3.0261,3.0267,3.0275,3.0277,3.0281,3.0282,3.0284,3.0286,3.0287,3.0301,3.0312,3.0293,3.031,3.0298,3.0297,3.0292,3.0292,3.0248,3.0293,3.0293,3.0293,3.0293,0,3.0214,3.0206,3.023,3.0226,3.0217,3.0236,3.0227,3.0235,3.0243,3.024,3.0258,3.0256,3.0274,3.0273,3.0284,3.0277,3.0277,3.0282,3.0285,3.0281,3.028,3.0281,3.0283,3.0292,3.0292,3.0292,3.0292,0,3.0171,3.0187,3.0181,3.0197,3.0201,3.0194,3.0207,3.0204,3.0214,3.0211,3.0211,3.0227,3.0227,3.0241,3.0244,3.0251,3.0239,3.0245,3.0237,3.0239,3.0225,3.0226,3.0179,3.0174,3.0222,3.0222,3.0221,0,3.0148,3.0143,3.0158,3.0159,3.0164,3.0164,3.0166,3.0184,3.0185,3.0194,3.0189,3.0191,3.0193,3.0192,3.0204,3.0206,3.0212,3.0196,3.0212,3.0208,3.0212,3.0212,3.0212,3.0192,3.0191,3.0191,3.019,0,3.0105,3.0114,3.0116,3.0121,3.0123,3.0128,3.0133,3.0132,3.0152,3.0152,3.0153,3.0155,3.0158,3.0159,3.0164,3.017,3.0183,3.0185,3.0182,3.0177,3.0173,3.0175,3.0227,3.0186,3.0186,3.0187,3.0187,3.0187,3.0072,3.0068,3.0079,3.0081,3.0088,3.0093,3.0091,3.0101,3.0103,3.0108,3.0118,3.0117,3.0125,3.0133,3.0138,3.0137,3.0145,3.0141,3.014,3.0138,3.0136,3.0173,3.0138,3.0138,3.0138,3.0138,3.0138,0,3.003,3.0039,3.004,3.0049,3.005,3.0064,3.0071,3.0071,3.0071,3.0078,3.008,3.0081,3.0083,3.0095,3.0098,3.0095,3.0101,3.0095,3.0095,3.0097,3.0128,3.0131,3.009,3.009,3.009,3.009,3.009,3.009,3.0009,3.0004,3.0013,3.0012,3.002,3.002,3.0023,3.0028,3.0034,3.0034,3.0036,3.0045,3.0053,3.0057,3.0059,3.0063,3.0063,3.0055,3.006,3.009,3.0094,3.0099,3.0101,3.0055,3.0055,3.0028,3.0028,3.0028]}]]